When you browse on this site, cookies collect data to enhance your experience and personalize the content and advertising you see.
Visit our Privacy Policy to learn more. By continuing to use the site, you agree to this use of cookies and data.
  • In Lithuania
  • List of Countries
  • For 7 days
  • Water Temperature
  • Satellite Maps
  • Weather Map
  • Weather Widgets
  • user-avatar
    Login

    Hourly Weather Novokucherlinskiy

    Today, 23 February, Saturday

    Time Temperature Precipitation Wind Pressure Humidity
    00:00 +3°C° 0 mm 3 mps 756 mmHg 70%
    01:00 +3°C° 0 mm 3 mps 756 mmHg 71%
    02:00 +3°C° 0 mm 3 mps 757 mmHg 72%
    03:00 +2°C° 0 mm 3 mps 757 mmHg 73%
    04:00 +3°C° 0 mm 2 mps 757 mmHg 74%
    05:00 +3°C° 0 mm 2 mps 757 mmHg 76%
    06:00 +2°C° 0 mm 2 mps 758 mmHg 77%
    07:00 +2°C° 0 mm 3 mps 758 mmHg 75%
    08:00 +1°C° 0 mm 4 mps 758 mmHg 73%
    09:00 +3°C° 0 mm 4 mps 759 mmHg 71%
    10:00 +4°C° 0 mm 4 mps 759 mmHg 69%
    11:00 +5°C° 0 mm 5 mps 759 mmHg 67%
    12:00 +6°C° 0 mm 5 mps 759 mmHg 64%
    13:00 +7°C° 0 mm 4 mps 759 mmHg 63%
    14:00 +7°C° 0 mm 4 mps 759 mmHg 62%
    15:00 +9°C° 0 mm 3 mps 759 mmHg 60%
    16:00 +8°C° 0 mm 3 mps 759 mmHg 63%
    17:00 +8°C° 0 mm 3 mps 759 mmHg 65%
    18:00 +7°C° 0 mm 2 mps 759 mmHg 68%
    19:00 +7°C° 0.1 mm 2 mps 760 mmHg 69%
    20:00 +7°C° 0.1 mm 3 mps 760 mmHg 71%
    21:00 +5°C° 0.1 mm 3 mps 760 mmHg 72%
    22:00 +5°C° 0 mm 3 mps 760 mmHg 73%
    23:00 +4°C° 0 mm 3 mps 761 mmHg 75%

    Tomorrow, 24 February, Sunday

    Time Temperature Precipitation Wind Pressure Humidity
    00:00 +5°C° 0 mm 2 mps 761 mmHg 76%
    01:00 +4°C° 0 mm 2 mps 761 mmHg 77%
    02:00 +4°C° 0 mm 2 mps 761 mmHg 78%
    03:00 +4°C° 0 mm 2 mps 761 mmHg 79%
    04:00 +3°C° 0 mm 2 mps 761 mmHg 81%
    05:00 +4°C° 0 mm 1 mps 761 mmHg 84%
    06:00 +4°C° 0 mm 1 mps 761 mmHg 86%
    07:00 +4°C° 0 mm 1 mps 761 mmHg 83%
    08:00 +4°C° 0 mm 1 mps 762 mmHg 81%
    09:00 +5°C° 0 mm 1 mps 762 mmHg 79%
    10:00 +4°C° 0 mm 2 mps 762 mmHg 78%
    11:00 +5°C° 0 mm 2 mps 762 mmHg 76%
    12:00 +4°C° 0 mm 3 mps 762 mmHg 74%
    13:00 +3°C° 0.2 mm 3 mps 762 mmHg 76%
    14:00 +3°C° 0.2 mm 4 mps 762 mmHg 77%
    15:00 +1°C° 0.2 mm 4 mps 762 mmHg 78%
    16:00 +1°C° 0.2 mm 4 mps 762 mmHg 79%
    17:00 0°C° 0.2 mm 4 mps 762 mmHg 80%
    18:00 0°C° 0.2 mm 4 mps 763 mmHg 82%
    19:00 0°C° 0 mm 4 mps 763 mmHg 82%
    20:00 -1°C° 0 mm 4 mps 763 mmHg 82%
    21:00 -1°C° 0 mm 4 mps 763 mmHg 83%
    22:00 -2°C° 0 mm 4 mps 764 mmHg 83%
    23:00 -2°C° 0 mm 4 mps 764 mmHg 83%

    Day after tomorrow, 25 February, Monday

    Time Temperature Precipitation Wind Pressure Humidity
    00:00 -3°C° 0 mm 4 mps 764 mmHg 83%
    01:00 -3°C° 0 mm 4 mps 764 mmHg 83%
    02:00 -4°C° 0 mm 4 mps 763 mmHg 82%
    03:00 -4°C° 0 mm 4 mps 763 mmHg 81%
    04:00 -5°C° 0 mm 4 mps 763 mmHg 80%
    05:00 -5°C° 0 mm 4 mps 763 mmHg 79%
    06:00 -5°C° 0 mm 4 mps 763 mmHg 78%
    07:00 -5°C° 0 mm 5 mps 763 mmHg 73%
    08:00 -5°C° 0 mm 5 mps 763 mmHg 69%
    09:00 -5°C° 0 mm 5 mps 763 mmHg 65%
    10:00 -3°C° 0 mm 6 mps 762 mmHg 57%
    11:00 -2°C° 0 mm 6 mps 762 mmHg 49%
    12:00 -1°C° 0 mm 6 mps 761 mmHg 42%
    13:00 0°C° 0 mm 7 mps 760 mmHg 43%
    14:00 +2°C° 0 mm 7 mps 760 mmHg 45%
    15:00 +2°C° 0 mm 7 mps 759 mmHg 46%
    16:00 +1°C° 0 mm 6 mps 758 mmHg 52%
    17:00 0°C° 0 mm 5 mps 758 mmHg 57%
    18:00 0°C° 0 mm 4 mps 758 mmHg 63%
    19:00 -1°C° 0 mm 5 mps 757 mmHg 65%
    20:00 -1°C° 0 mm 5 mps 757 mmHg 67%
    21:00 -2°C° 0 mm 6 mps 756 mmHg 70%
    22:00 -2°C° 0 mm 6 mps 755 mmHg 72%
    23:00 -2°C° 0 mm 6 mps 755 mmHg 74%

    26 February, Tuesday

    Time Temperature Precipitation Wind Pressure Humidity
    00:00 -3°C° 0 mm 6 mps 754 mmHg 76%
    01:00 -3°C° 0 mm 7 mps 753 mmHg 75%
    02:00 -3°C° 0 mm 7 mps 753 mmHg 74%
    03:00 -4°C° 0 mm 8 mps 752 mmHg 73%
    04:00 -2°C° 0.1 mm 8 mps 751 mmHg 74%
    05:00 -3°C° 0.1 mm 9 mps 751 mmHg 74%
    06:00 -3°C° 0.1 mm 9 mps 750 mmHg 75%
    07:00 -3°C° 0.3 mm 9 mps 750 mmHg 75%
    08:00 -2°C° 0.3 mm 10 mps 749 mmHg 74%
    09:00 -2°C° 0.3 mm 10 mps 749 mmHg 74%
    10:00 -2°C° 0.1 mm 10 mps 749 mmHg 71%
    11:00 0°C° 0.1 mm 10 mps 748 mmHg 67%
    12:00 0°C° 0.1 mm 10 mps 748 mmHg 64%
    13:00 0°C° 0.1 mm 10 mps 747 mmHg 63%
    14:00 0°C° 0.1 mm 10 mps 747 mmHg 62%
    15:00 0°C° 0.1 mm 10 mps 746 mmHg 62%
    16:00 0°C° 0 mm 8 mps 746 mmHg 64%
    17:00 -1°C° 0 mm 7 mps 746 mmHg 67%
    18:00 -1°C° 0 mm 6 mps 746 mmHg 70%
    19:00 -2°C° 0.1 mm 6 mps 746 mmHg 73%
    20:00 -2°C° 0.1 mm 6 mps 745 mmHg 76%
    21:00 -2°C° 0.1 mm 6 mps 745 mmHg 80%
    22:00 -3°C° 0 mm 6 mps 745 mmHg 81%
    23:00 -3°C° 0 mm 6 mps 745 mmHg 82%

    27 February, Wednesday

    Time Temperature Precipitation Wind Pressure Humidity
    00:00 -2°C° 0 mm 5 mps 744 mmHg 83%
    01:00 -2°C° 0 mm 5 mps 744 mmHg 83%
    02:00 -2°C° 0 mm 4 mps 744 mmHg 84%
    03:00 -2°C° 0 mm 4 mps 743 mmHg 84%
    04:00 -1°C° 0 mm 3 mps 743 mmHg 86%
    05:00 -2°C° 0 mm 2 mps 743 mmHg 88%
    06:00 -2°C° 0 mm 2 mps 743 mmHg 90%
    07:00 -1°C° 0.1 mm 2 mps 743 mmHg 87%
    08:00 -1°C° 0.1 mm 2 mps 743 mmHg 85%
    09:00 +1°C° 0.1 mm 2 mps 743 mmHg 82%
    10:00 +2°C° 0 mm 2 mps 743 mmHg 78%
    11:00 +2°C° 0 mm 2 mps 743 mmHg 74%
    12:00 +3°C° 0 mm 2 mps 743 mmHg 70%
    13:00 +4°C° 0.1 mm 1 mps 743 mmHg 67%
    14:00 +5°C° 0.1 mm 1 mps 743 mmHg 65%
    15:00 +5°C° 0.1 mm 1 mps 743 mmHg 63%
    16:00 +5°C° 0 mm 1 mps 744 mmHg 67%
    17:00 +4°C° 0 mm 1 mps 744 mmHg 71%
    18:00 +3°C° 0 mm 1 mps 744 mmHg 76%
    19:00 +2°C° 0 mm 2 mps 745 mmHg 78%
    20:00 +2°C° 0 mm 2 mps 745 mmHg 81%
    21:00 +1°C° 0 mm 3 mps 746 mmHg 84%
    22:00 0°C° 0.1 mm 3 mps 746 mmHg 85%
    23:00 0°C° 0.1 mm 3 mps 746 mmHg 85%

    28 February, Thursday

    Time Temperature Precipitation Wind Pressure Humidity
    00:00 0°C° 0.1 mm 3 mps 746 mmHg 86%
    01:00 -1°C° 0 mm 3 mps 747 mmHg 87%
    02:00 -2°C° 0 mm 2 mps 747 mmHg 87%
    03:00 -2°C° 0 mm 2 mps 747 mmHg 88%
    04:00 -4°C° 0 mm 3 mps 747 mmHg 89%
    05:00 -4°C° 0 mm 3 mps 748 mmHg 89%
    06:00 -4°C° 0 mm 4 mps 748 mmHg 90%
    07:00 -3°C° 0 mm 4 mps 748 mmHg 85%
    08:00 -2°C° 0 mm 5 mps 748 mmHg 80%
    09:00 -3°C° 0 mm 6 mps 749 mmHg 75%
    10:00 -2°C° 0 mm 6 mps 748 mmHg 72%
    11:00 -1°C° 0 mm 6 mps 748 mmHg 69%
    12:00 0°C° 0 mm 7 mps 748 mmHg 66%
    13:00 0°C° 0 mm 7 mps 747 mmHg 65%
    14:00 0°C° 0 mm 7 mps 747 mmHg 64%
    15:00 0°C° 0 mm 7 mps 746 mmHg 63%
    16:00 +1°C° 0 mm 6 mps 746 mmHg 65%
    17:00 -1°C° 0 mm 6 mps 746 mmHg 68%
    18:00 0°C° 0 mm 5 mps 746 mmHg 71%
    19:00 -1°C° 0 mm 5 mps 746 mmHg 73%
    20:00 -1°C° 0 mm 5 mps 746 mmHg 76%
    21:00 -2°C° 0 mm 5 mps 746 mmHg 78%
    22:00 -2°C° 0 mm 6 mps 746 mmHg 76%
    23:00 -2°C° 0 mm 6 mps 745 mmHg 74%
    Show more